Odessa, TX

10:12 PM CDT on July 24, 2017 (GMT -0500)
Odessa-Schlemeyer

Weather History for KODO - July, 2013

Change the Weather History Date:

Tuesday, July 2, 2013

  Actual Average (KMAF) Record (KMAF)
Temperature  
Mean Temperature 74 °F -  
Max Temperature 84 °F 92 °F 112 °F (1989)
Min Temperature 66 °F 68 °F 60 °F (1967)
Cooling Degree Days 9    
Growing Degree Days 24 (Base 50)    
Moisture  
Dew Point 53 °F    
Average Humidity 50    
Maximum Humidity 90    
Minimum Humidity 23    
Precipitation  
Precipitation 0.00 in - - ()
Sea Level Pressure  
Sea Level Pressure 30.04 in    
Wind  
Wind Speed 5 mph (East)    
Max Wind Speed 13 mph    
Max Gust Speed 20 mph    
Visibility 10 miles    
Events      
Averages and records for this station are not official NWS values.
T = Trace of Precipitation, MM = Missing Value Source: NWS Daily Summary

Daily Weather History Graph

Daily Weather History Graph

Search for Another Location

Airport or City:

Trip Planner

Search our weather history database for the weather conditions in past years. The results will help you decide how hot, cold, wet, or windy it might be!

Date:

Astronomy

Jul. 02, 2013 Rise Set
Actual Time 6:47 AM CDT 8:59 PM CDT
Civil Twilight 6:19 AM CDT 9:27 PM CDT
Nautical Twilight 5:45 AM CDT 10:01 PM CDT
Astronomical Twilight 5:08 AM CDT 10:38 PM CDT
Moon 2:41 AM CDT (7/2) 4:23 PM CDT (7/2)
Length of Visible Light 15h 07m
Length of Day
14h 11m
Waning Crescent, 26% of the Moon is Illuminated
Jul 2
Waning Crescent
Jul 8
New
Jul 15
First Quarter
Jul 22
Full
Jul 29
Last Quarter

Hourly Weather History & Observations

Time (CDT) Temp. Heat Index Dew Point Humidity Pressure Visibility Wind Dir Wind Speed Gust Speed Precip Events Conditions
12:53 AM 69.1 °F - 62.1 °F 78% 30.08 in 10.0 mi WSW 4.6 mph - N/A   Overcast
1:53 AM 69.1 °F - 61.0 °F 75% 30.07 in 10.0 mi Calm Calm - N/A   Clear
2:53 AM 68.0 °F - 62.1 °F 81% 30.07 in 10.0 mi Calm Calm - N/A   Mostly Cloudy
3:53 AM 66.9 °F - 62.1 °F 84% 30.08 in 10.0 mi West 4.6 mph - N/A   Mostly Cloudy
4:53 AM 68.0 °F - 62.1 °F 81% 30.06 in 10.0 mi WNW 5.8 mph - N/A   Scattered Clouds
5:53 AM 66.9 °F - 63.0 °F 87% 30.06 in 10.0 mi West 3.5 mph - N/A   Clear
6:53 AM 66.0 °F - 63.0 °F 90% 30.07 in 10.0 mi North 5.8 mph - N/A   Clear
7:53 AM 66.9 °F - 57.0 °F 70% 30.09 in 10.0 mi Variable 3.5 mph - N/A   Clear
9:53 AM 73.9 °F - 53.1 °F 48% 30.10 in 10.0 mi East 12.7 mph - N/A   Clear
10:53 AM 75.0 °F - 51.1 °F 43% 30.11 in 10.0 mi ESE 12.7 mph 19.6 mph N/A   Mostly Cloudy
11:53 AM 77.0 °F - 51.1 °F 40% 30.11 in 10.0 mi SE 6.9 mph - N/A   Partly Cloudy
12:53 PM 80.1 °F - 48.9 °F 34% 30.09 in 10.0 mi East 6.9 mph - N/A   Clear
1:53 PM 80.1 °F - 46.0 °F 30% 30.07 in 10.0 mi ENE 9.2 mph - N/A   Mostly Cloudy
2:53 PM 82.0 °F - 45.0 °F 27% 30.04 in 10.0 mi Calm Calm - N/A   Scattered Clouds
3:53 PM 82.9 °F - 45.0 °F 26% 30.02 in 10.0 mi NE 4.6 mph - N/A   Mostly Cloudy
4:53 PM 81.0 °F 80.7 °F 55.0 °F 41% 30.01 in 10.0 mi WSW 5.8 mph - N/A   Overcast
5:53 PM 82.9 °F - 48.9 °F 31% 29.98 in 10.0 mi Calm Calm - N/A   Mostly Cloudy
6:53 PM 82.9 °F - 42.1 °F 24% 29.96 in 10.0 mi Variable 5.8 mph - N/A   Partly Cloudy
7:53 PM 82.0 °F - 41.0 °F 23% 29.97 in 10.0 mi East 6.9 mph - N/A   Partly Cloudy
8:53 PM 79.0 °F - 44.1 °F 29% 29.98 in 10.0 mi East 5.8 mph - N/A   Clear
9:53 PM 77.0 °F - 46.9 °F 34% 29.99 in 10.0 mi East 4.6 mph - N/A   Clear
10:53 PM 75.0 °F - 45.0 °F 34% 30.01 in 10.0 mi ESE 6.9 mph - N/A   Clear
11:53 PM 73.9 °F - - N/A% 30.01 in - North - - N/A   Clear